Weather History for Grand Island, NE

Change the Weather History Date:

Wednesday, February 13, 2013

  Actual Average Record
Temperature  
Mean Temperature 41 °F 28 °F  
Max Temperature 55 °F 39 °F 71 °F (1954)
Min Temperature 26 °F 18 °F -25 °F (1905)
Degree Days  
Heating Degree Days 24 37  
Month to date heating degree days 372 494  
Since 1 July heating degree days 3887 4250  
Cooling Degree Days 0 0  
Month to date cooling degree days 0 0  
Year to date cooling degree days 0 0  
Moisture  
Dew Point 25 °F    
Average Humidity 55    
Maximum Humidity 81    
Minimum Humidity 29    
Precipitation  
Precipitation 0.00 in 0.03 in 1.00 in (1919)
Month to date precipitation 0.07 0.28  
Year to date precipitation 0.23 0.81  
Snow  
Snow 0.00 in 0.30 in 10.00 in (1919)
Month to date snowfall T 3.2  
Since 1 July snowfall 10.4 19.0  
Snow Depth 0.00 in    
Sea Level Pressure  
Sea Level Pressure 29.88 in    
Wind  
Wind Speed 11 mph (West)    
Max Wind Speed 23 mph    
Max Gust Speed 26 mph    
Visibility 10 miles    
Events      
T = Trace of Precipitation, MM = Missing Value Source: NWS Daily Summary

Daily Weather History Graph

Daily Weather History Graph

Search for Another Location

Airport:

Trip Planner

Search our weather history database for the weather conditions in past years. The results will help you decide how hot, cold, wet, or windy it might be!

Date:

Astronomy

Feb. 13, 2013 Rise Set
Actual Time 7:29 AM CST 6:05 PM CST
Civil Twilight 7:01 AM CST 6:33 PM CST
Nautical Twilight 6:29 AM CST 7:06 PM CST
Astronomical Twilight 5:57 AM CST 7:38 PM CST
Moon 8:57 AM CST (2/13) 10:12 PM CST (2/13)
Length of Visible Light 11h 32m
Length of Day
10h 35m
Waxing Crescent, 14% of the Moon is Illuminated
Feb 13
Waxing Crescent
Feb 17
First Quarter
Feb 25
Full
Mar 4
Last Quarter
Mar 11
New

Hourly Weather History & Observations

Time (CST) Temp. Windchill Dew Point Humidity Pressure Visibility Wind Dir Wind Speed Gust Speed Precip Events Conditions
12:53 AM 27.0 °F 18.7 °F 21.9 °F 81% 29.96 in 10.0 mi West 8.1 mph - N/A   Clear
1:53 AM 27.0 °F 19.5 °F 21.9 °F 81% 29.95 in 10.0 mi West 6.9 mph - N/A   Clear
2:53 AM 27.0 °F 18.0 °F 21.0 °F 78% 29.94 in 10.0 mi West 9.2 mph - N/A   Clear
3:53 AM 26.1 °F 17.6 °F 21.9 °F 84% 29.92 in 10.0 mi West 8.1 mph - N/A   Clear
4:53 AM 27.0 °F 18.7 °F 21.9 °F 81% 29.91 in 10.0 mi West 8.1 mph - N/A   Clear
5:53 AM 27.0 °F 18.7 °F 21.9 °F 81% 29.92 in 10.0 mi West 8.1 mph - N/A   Clear
6:53 AM 28.0 °F 20.8 °F 23.0 °F 81% 29.91 in 10.0 mi West 6.9 mph - N/A   Clear
7:53 AM 27.0 °F 18.0 °F 21.9 °F 81% 29.92 in 10.0 mi West 9.2 mph - N/A   Clear
8:53 AM 32.0 °F 23.6 °F 24.1 °F 73% 29.92 in 10.0 mi West 10.4 mph - N/A   Clear
9:53 AM 37.9 °F 29.2 °F 25.0 °F 60% 29.91 in 10.0 mi West 15.0 mph - N/A   Clear
10:53 AM 42.1 °F 35.7 °F 24.1 °F 49% 29.90 in 10.0 mi West 11.5 mph - N/A   Clear
11:53 AM 46.0 °F 40.6 °F 23.0 °F 40% 29.88 in 10.0 mi West 11.5 mph - N/A   Clear
12:53 PM 50.0 °F - 24.1 °F 36% 29.86 in 10.0 mi West 15.0 mph - N/A   Clear
1:53 PM 53.1 °F - 23.0 °F 31% 29.83 in 10.0 mi West 16.1 mph 20.7 mph N/A   Clear
2:53 PM 53.1 °F - 23.0 °F 31% 29.79 in 10.0 mi West 18.4 mph 24.2 mph N/A   Clear
3:53 PM 55.0 °F - 24.1 °F 30% 29.79 in 10.0 mi West 16.1 mph - N/A   Clear
4:53 PM 52.0 °F - 25.0 °F 35% 29.79 in 10.0 mi WNW 11.5 mph - N/A   Overcast
5:53 PM 48.9 °F - 27.0 °F 43% 29.82 in 10.0 mi NW 11.5 mph - N/A   Clear
6:53 PM 39.0 °F 33.4 °F 27.0 °F 62% 29.84 in 10.0 mi West 8.1 mph - N/A   Clear
7:53 PM 37.9 °F 30.9 °F 27.0 °F 65% 29.85 in 10.0 mi West 10.4 mph - N/A   Clear
8:53 PM 37.9 °F 30.9 °F 27.0 °F 65% 29.84 in 10.0 mi WSW 10.4 mph - N/A   Clear
9:53 PM 37.0 °F 30.4 °F 27.0 °F 67% 29.85 in 10.0 mi West 9.2 mph - N/A   Scattered Clouds
10:53 PM 41.0 °F 33.5 °F 28.9 °F 62% 29.87 in 10.0 mi WNW 13.8 mph - N/A   Overcast
11:53 PM 39.9 °F 32.5 °F 30.0 °F 68% 29.89 in 10.0 mi NW 12.7 mph - N/A   Mostly Cloudy